Temp
15 15 15 15 15 15 14 14 14 13 13 12 12 11 12 13 13 13 13 13 13 13 13 12 12 11 10 10 10 10 9 10 10 11 11 12 12 12 12 13 12 12 12
15 15 15 15 15 14 14 13 13 13 12 12 12 11 12 13 13 13 12 12 12 12 12 12 12 11 10 9 9 9 9 8 9 10 11 12 12 13 12 12 12 12 12
14 15 14 15 15 14 14 13 13 12 13 12 12 11 11 13 13 13 13 12 12 12 12 12 11 11 9 9 9 8 8 8 8 9 10 12 12 12 12 12 12 12 11
14 14 15 15 14 14 13 13 13 12 12 12 12 11 11 12 12 13 12 12 12 12 12 12 11 10 9 9 8 8 8 8 8 9 11 12 12 12 12 11 11 11 11
14 14 14 14 14 13 13 13 13 13 12 11 11 12 11 11 12 12 12 12 12 12 12 11 10 9 9 8 8 8 7 8 9 9 11 11 11 11 11 11 11 11 11
14 14 14 14 13 13 12 12 12 12 12 12 12 11 11 11 11 11 12 12 12 12 11 10 8 8 8 8 8 8 8 8 9 8 9 10 11 11 11 11 11 11 11
13 13 13 13 13 12 12 12 12 12 11 11 11 11 11 11 11 11 11 12 11 11 11 10 9 8 7 8 7 8 8 8 8 8 9 11 11 11 11 11 10 10 10
13 13 12 12 12 12 12 12 12 11 11 11 11 11 10 9 10 10 10 11 11 11 10 9 9 8 8 7 7 7 7 8 8 8 10 11 11 11 11 10 10 10 10
13 12 12 11 11 12 12 12 11 12 12 11 11 11 9 9 9 9 9 10 10 10 10 10 9 8 8 9 8 8 8 8 8 9 11 11 11 11 11 10 10 10 10
13 12 11 12 12 12 11 12 12 12 12 12 10 10 11 11 9 9 9 9 10 10 10 10 9 9 9 9 9 9 9 9 10 11 11 11 11 11 10 10 10 10 10
13 11 11 11 11 11 11 11 11 11 11 11 12 11 10 9 9 9 8 9 9 10 10 10 10 10 9 9 9 9 9 10 10 10 10 10 11 10 10 10 10 10 10
12 11 11 11 11 11 10 11 11 11 11 10 11 11 10 9 9 9 9 9 10 10 10 10 10 10 10 10 10 10 10 10 9 9 10 10 10 10 10 10 10 10 10
12 12 11 11 11 10 10 10 11 11 11 11 11 10 9 9 10 10 9 10 9 10 10 10 10 10 10 10 10 10 10 10 10 10 9 9 10 10 10 10 10 10 10
14 13 11 11 10 10 10 10 9 10 10 11 10 9 9 9 10 10 10 10 9 9 10 11 11 10 10 10 10 10 10 10 9 9 9 9 9 9 10 10 10 10 10
13 11 11 11 10 10 9 9 9 10 10 10 10 9 9 10 9 9 9 9 10 10 9 10 10 10 10 10 10 10 10 10 9 9 9 9 10 10 10 10 9 9 9
11 11 11 11 10 10 11 10 10 10 10 10 10 9 9 9 9 9 9 10 10 11 11 10 10 10 10 10 10 9 9 9 9 9 10 10 9 9 9 9 9 9 9
11 11 11 11 10 10 10 10 10 9 9 10 10 10 9 9 9 9 9 9 9 10 11 10 10 10 10 10 9 9 9 9 9 9 9 10 10 9 9 10 9 9 9
11 11 11 11 10 10 10 10 10 9 9 10 10 10 10 9 9 9 9 10 9 10 10 10 10 9 10 10 9 9 9 9 8 8 8 9 9 9 9 8 9 9 9
11 11 11 10 10 10 9 9 9 9 9 9 9 9 9 9 9 9 9 9 9 9 9 9 9 9 9 9 9 9 9 8 7 7 8 8 8 8 8 9 8 8 8
11 11 11 10 10 9 9 9 9 9 9 9 9 9 9 9 9 9 8 9 9 8 9 8 9 8 8 9 8 8 7 7 7 7 8 8 8 8 8 8 8 8 8
11 10 10 10 9 9 9 9 9 9 9 9 9 9 9 9 9 8 9 8 8 8 8 8 7 7 8 7 7 8 7 7 7 7 7 7 7 7 7 7 7 7 6
9 10 10 10 9 8 8 8 9 9 9 9 9 9 9 9 8 8 8 8 8 8 8 8 8 8 8 7 7 7 7 7 6 6 6 6 6 6 5 5 5 4 4
9 9 9 9 8 8 8 8 8 9 9 9 9 9 9 8 8 8 8 8 8 8 8 8 8 8 7 7 7 7 6 6 6 5 4 3 3 3 3 2 1 1 1
8 8 8 8 8 8 8 8 8 8 8 8 8 8 8 8 8 8 8 8 8 7 7 7 7 6 6 7 6 6 5 5 4 4 2 2 2 1 0 -0 -1 -2 -2
7 6 6 7 7 8 8 8 7 8 8 7 7 7 6 7 6 6 7 7 7 6 6 6 6 5 4 4 4 4 3 3 2 2 1 0 -1 -1 -1 -2 -3 -4 -4
3 2 2 3 3 5 4 4 5 6 6 5 5 5 4 5 4 4 4 4 4 4 2 2 2 2 1 2 1 1 1 1 1 1 0 -0 -1 -1 -3 -4 -5 -5 -5
Height
1476 1477 1479 1480 1482 1485 1489 1491 1494 1497 1498 1500 1504 1507 1510 1518 1519 1523 1525 1528 1532 1534 1537 1540 1542 1544 1547 1549 1551 1552 1554 1555 1557 1558 1559 1560 1563 1565 1567 1569 1571 1572 1574
1474 1475 1476 1477 1479 1482 1486 1489 1493 1494 1496 1500 1501 1506 1509 1516 1519 1521 1525 1527 1531 1534 1536 1539 1541 1543 1545 1547 1549 1551 1552 1553 1555 1556 1558 1560 1562 1564 1567 1569 1571 1573 1575
1470 1472 1473 1474 1476 1480 1483 1487 1490 1493 1496 1499 1502 1504 1508 1514 1517 1520 1523 1525 1529 1532 1535 1537 1540 1542 1544 1545 1547 1549 1550 1551 1553 1555 1557 1559 1562 1564 1566 1569 1571 1573 1574
1467 1469 1470 1472 1474 1477 1481 1484 1487 1490 1494 1497 1500 1501 1506 1510 1515 1519 1521 1524 1527 1530 1533 1535 1538 1540 1541 1542 1544 1546 1548 1550 1552 1553 1556 1559 1561 1563 1565 1567 1570 1572 1573
1463 1465 1467 1469 1472 1474 1477 1481 1484 1487 1491 1495 1498 1502 1504 1507 1511 1516 1519 1522 1525 1528 1530 1532 1535 1538 1540 1541 1543 1544 1546 1548 1551 1553 1555 1557 1560 1563 1565 1567 1569 1570 1572
1459 1461 1464 1466 1469 1471 1474 1477 1481 1485 1489 1492 1496 1500 1503 1505 1509 1511 1516 1520 1523 1525 1526 1528 1532 1535 1538 1539 1542 1544 1546 1547 1549 1552 1554 1556 1559 1561 1564 1566 1568 1569 1571
1455 1458 1460 1462 1465 1468 1471 1473 1477 1481 1485 1490 1495 1497 1500 1501 1503 1507 1512 1517 1520 1522 1523 1525 1529 1532 1535 1537 1540 1542 1545 1547 1549 1551 1553 1555 1557 1560 1563 1565 1566 1568 1569
1450 1454 1456 1459 1462 1465 1468 1470 1473 1476 1481 1485 1489 1493 1496 1497 1499 1501 1508 1514 1517 1519 1521 1524 1527 1529 1533 1534 1538 1540 1543 1545 1548 1550 1552 1554 1556 1559 1561 1563 1564 1566 1568
1445 1449 1452 1455 1459 1460 1463 1466 1468 1471 1475 1480 1484 1488 1491 1493 1495 1499 1505 1510 1514 1516 1518 1521 1524 1527 1530 1532 1535 1538 1541 1543 1545 1547 1549 1552 1554 1557 1559 1561 1563 1563 1565
1441 1445 1448 1451 1454 1456 1459 1461 1464 1467 1471 1474 1479 1482 1485 1486 1489 1496 1502 1507 1512 1514 1516 1519 1521 1524 1527 1530 1533 1535 1538 1541 1543 1545 1547 1549 1552 1554 1556 1558 1560 1561 1562
1437 1441 1444 1446 1449 1452 1454 1457 1460 1463 1467 1470 1472 1476 1479 1480 1485 1484 1493 1501 1507 1511 1514 1517 1519 1521 1524 1527 1530 1533 1535 1538 1540 1543 1545 1546 1549 1551 1554 1556 1557 1558 1559
1431 1435 1438 1441 1444 1447 1450 1453 1456 1458 1461 1465 1468 1470 1473 1475 1475 1480 1488 1496 1501 1506 1510 1513 1516 1518 1521 1524 1527 1530 1533 1536 1538 1540 1543 1544 1547 1549 1551 1552 1554 1555 1555
1425 1429 1432 1435 1439 1443 1447 1449 1451 1453 1457 1459 1461 1464 1466 1469 1472 1479 1486 1493 1498 1503 1506 1509 1512 1516 1519 1521 1524 1527 1530 1533 1535 1538 1540 1541 1543 1545 1546 1548 1549 1550 1551
1420 1425 1429 1432 1436 1439 1441 1444 1447 1449 1452 1455 1456 1457 1457 1464 1468 1476 1482 1489 1495 1499 1502 1504 1508 1511 1515 1517 1520 1524 1526 1529 1531 1534 1536 1537 1539 1540 1542 1543 1545 1546 1546
1417 1421 1426 1429 1433 1435 1438 1440 1442 1444 1446 1448 1451 1455 1455 1459 1467 1473 1479 1486 1491 1494 1496 1500 1503 1506 1510 1513 1516 1519 1521 1524 1526 1529 1530 1531 1533 1535 1536 1538 1539 1540 1540
1414 1419 1422 1426 1429 1431 1434 1436 1437 1439 1440 1441 1443 1446 1448 1456 1463 1470 1476 1482 1487 1490 1491 1495 1499 1502 1505 1508 1511 1514 1516 1518 1521 1523 1525 1526 1528 1529 1530 1530 1531 1532 1532
1412 1416 1419 1422 1425 1428 1430 1431 1431 1432 1431 1429 1433 1440 1445 1452 1460 1466 1472 1478 1480 1485 1487 1491 1495 1499 1501 1504 1507 1510 1512 1514 1516 1517 1518 1520 1521 1522 1523 1523 1524 1524 1524
1410 1413 1416 1419 1422 1424 1425 1427 1427 1427 1425 1427 1431 1436 1442 1448 1456 1462 1469 1472 1476 1479 1483 1489 1493 1495 1498 1501 1504 1505 1507 1509 1508 1509 1511 1513 1515 1516 1516 1517 1517 1516 1515
1409 1410 1414 1417 1420 1422 1423 1424 1424 1423 1423 1427 1431 1432 1436 1444 1450 1457 1464 1469 1472 1475 1479 1485 1489 1492 1494 1496 1498 1499 1501 1499 1501 1503 1505 1506 1506 1508 1508 1508 1506 1505 1504
1405 1408 1412 1415 1417 1419 1420 1421 1422 1422 1423 1425 1427 1431 1433 1441 1446 1453 1460 1465 1469 1473 1476 1480 1482 1484 1486 1488 1490 1490 1492 1492 1494 1496 1497 1497 1498 1499 1498 1497 1498 1497 1496
1403 1407 1410 1412 1415 1416 1418 1419 1419 1420 1421 1423 1426 1429 1432 1439 1445 1450 1455 1460 1464 1468 1470 1473 1475 1477 1478 1479 1481 1484 1486 1486 1487 1487 1489 1490 1491 1491 1491 1490 1490 1491 1489
1401 1405 1408 1410 1412 1414 1416 1417 1418 1419 1421 1423 1426 1428 1431 1438 1443 1448 1452 1456 1458 1460 1463 1467 1468 1470 1473 1476 1477 1479 1480 1480 1482 1482 1482 1483 1484 1484 1484 1484 1483 1483 1482
1401 1403 1407 1408 1410 1412 1413 1415 1416 1418 1420 1423 1425 1427 1430 1434 1438 1441 1445 1449 1452 1456 1458 1460 1463 1466 1467 1470 1472 1472 1473 1475 1475 1476 1477 1478 1478 1478 1478 1477 1477 1476 1476
1400 1403 1405 1407 1409 1410 1411 1413 1415 1417 1418 1420 1424 1426 1429 1431 1434 1437 1440 1444 1448 1450 1453 1456 1458 1460 1462 1464 1465 1466 1467 1468 1470 1471 1470 1472 1472 1472 1473 1473 1472 1471 1470
1397 1401 1403 1405 1407 1409 1411 1412 1413 1415 1418 1419 1422 1424 1426 1429 1432 1435 1438 1440 1443 1445 1447 1449 1451 1453 1455 1457 1460 1461 1462 1464 1465 1466 1466 1467 1468 1469 1468 1468 1468 1467 1466
1395 1400 1401 1403 1405 1406 1409 1412 1413 1414 1415 1417 1420 1422 1425 1427 1430 1433 1436 1438 1440 1442 1443 1446 1448 1451 1452 1453 1456 1457 1458 1459 1461 1462 1463 1465 1465 1466 1467 1466 1465 1465 1465
Wind_Speed
22 22 21 20 21 21 23 23 19 22 22 31 31 32 29 27 25 24 21 20 19 15 13 14 14 16 17 19 19 17 17 18 16 15 13 12 12 12 11 10 9 9 9
22 22 21 21 22 22 23 24 21 18 27 30 30 30 28 28 24 25 22 20 20 17 12 13 15 18 20 20 18 17 16 15 15 14 14 14 13 12 11 10 10 9 8
21 20 20 20 22 23 25 24 20 21 27 26 24 30 29 26 24 26 25 23 22 17 14 13 16 18 20 21 20 19 17 14 15 15 14 14 13 12 11 10 10 9 9
21 21 21 20 22 23 25 25 22 27 28 25 28 32 31 29 25 23 26 24 22 18 15 13 18 22 21 20 21 21 18 17 17 16 15 13 12 12 12 12 11 9 8
22 21 21 20 21 24 26 25 25 28 29 26 26 29 32 31 29 26 27 26 20 16 14 13 17 25 23 19 20 19 19 18 17 17 15 15 14 13 13 11 10 10 10
23 22 21 20 23 26 27 27 27 28 31 28 27 28 31 32 31 29 28 24 20 16 12 13 17 18 20 19 19 19 19 17 17 16 16 15 15 14 13 12 11 11 11
25 24 23 22 23 28 28 27 27 27 29 31 29 26 28 34 33 31 29 25 20 14 12 14 18 19 21 21 18 19 18 17 16 17 16 16 15 14 13 12 12 12 12
26 25 25 25 25 25 27 28 28 29 31 35 31 25 20 19 30 37 31 25 19 15 13 16 19 19 18 20 21 18 18 17 16 17 16 15 14 13 13 13 12 12 12
28 26 23 25 28 28 28 26 28 30 35 38 36 24 10 10 28 33 31 27 21 17 13 15 19 20 19 16 16 15 14 17 19 17 16 15 14 13 13 13 13 12 12
30 27 23 24 27 29 28 26 26 29 34 35 35 38 29 22 27 22 32 29 25 21 15 15 17 20 19 16 13 14 14 15 14 15 14 14 15 15 14 14 14 14 14
30 29 26 26 28 28 27 27 26 31 34 36 37 38 34 27 35 35 28 31 31 27 20 19 16 17 19 16 13 12 13 13 13 14 15 15 15 16 16 15 16 15 16
30 29 27 27 30 28 28 26 28 30 32 36 36 37 36 38 37 35 23 33 35 32 27 23 22 18 18 16 14 11 12 12 12 12 13 15 16 16 16 16 16 16 16
30 28 27 26 26 25 27 27 26 27 29 33 37 37 44 45 40 30 22 29 28 30 28 28 25 22 19 17 16 14 13 13 12 13 14 13 14 16 17 18 18 19 19
21 20 22 24 23 26 25 26 27 30 30 33 34 40 50 43 33 33 30 22 23 25 26 27 25 24 21 19 17 15 15 16 16 16 16 16 18 20 21 21 22 22 22
16 15 16 18 22 23 24 24 24 28 31 34 34 37 45 40 36 28 31 31 27 22 33 29 25 23 23 20 17 15 16 17 19 19 19 18 18 18 19 22 24 25 26
16 14 17 20 23 25 24 23 26 28 35 37 34 47 47 40 36 28 31 23 31 27 23 27 28 22 19 20 22 24 22 21 20 17 18 19 19 20 21 25 27 27 28
13 14 16 17 21 20 21 25 26 28 31 37 39 47 45 43 37 30 35 31 32 27 15 15 17 20 18 15 16 16 14 13 16 18 20 22 25 25 27 30 29 30 33
12 13 14 15 15 16 16 17 19 17 28 33 35 46 43 45 40 33 31 26 29 24 24 15 20 21 20 19 18 21 22 25 22 22 22 26 29 33 33 31 36 39 41
13 11 12 11 13 14 15 17 13 14 25 25 27 41 46 44 46 38 31 28 24 20 20 21 20 22 22 25 27 27 27 25 21 23 27 30 31 34 37 37 32 30 33
15 13 12 12 15 15 17 15 14 10 12 24 32 35 37 34 37 39 34 29 30 24 23 25 25 25 26 29 27 22 18 19 23 27 29 29 29 30 32 26 27 30 29
14 13 12 13 13 14 15 14 14 13 15 21 25 31 37 33 26 27 27 30 24 24 24 25 26 29 25 16 15 13 13 17 22 24 24 24 24 21 22 24 26 27 27
17 15 14 14 16 16 14 16 15 15 15 19 21 19 31 32 31 29 31 31 31 25 30 32 25 17 16 17 16 16 15 18 17 17 20 20 20 21 19 20 23 23 25
17 15 14 14 15 15 12 13 15 18 19 21 23 23 27 30 28 31 29 30 28 30 22 21 20 21 23 21 20 20 20 22 22 19 18 19 19 18 18 17 17 21 24
17 15 14 14 14 14 13 12 13 13 16 20 21 23 24 22 23 24 24 26 22 21 22 23 23 24 26 25 24 21 20 18 19 17 14 15 17 17 17 17 19 17 14
19 17 16 16 15 14 15 15 16 17 18 19 18 19 18 18 17 16 16 18 19 20 20 21 20 18 16 14 14 15 14 17 18 18 18 15 15 13 11 9 8 7 8
17 16 17 15 15 15 14 13 15 18 21 20 19 18 18 16 16 16 13 14 14 12 10 8 7 8 9 9 8 7 7 8 8 7 7 8 7 5 5 7 8 9 10
Wind_Direction
218 218 217 217 222 225 218 212 220 217 234 198 195 197 201 196 182 182 185 191 199 192 198 205 204 212 209 206 213 221 225 225 233 236 229 210 204 199 194 188 183 182 182
219 218 217 217 221 221 215 210 217 224 201 201 200 200 203 196 196 191 197 194 198 203 205 215 214 222 212 208 210 213 213 215 224 216 206 200 199 193 191 190 187 186 188
214 216 218 219 220 218 214 212 217 206 192 198 201 210 210 205 198 205 203 205 204 212 218 220 220 225 219 216 204 207 205 201 193 195 203 197 195 194 192 190 191 195 203
213 216 220 217 217 218 217 210 210 198 200 199 204 205 214 216 214 212 206 211 210 216 220 224 214 218 217 218 210 204 200 195 194 198 201 198 197 195 193 196 202 210 217
216 218 220 216 217 217 215 212 207 204 201 206 209 214 214 215 218 215 209 208 215 219 229 232 221 219 217 211 207 202 198 202 198 198 203 200 200 199 202 207 214 221 228
219 220 219 218 218 218 217 214 212 210 213 217 215 220 220 221 216 208 208 205 212 221 230 229 209 203 201 203 213 207 206 204 201 205 207 203 205 208 212 219 227 235 241
222 223 220 220 218 221 222 218 215 217 216 215 216 216 219 219 213 207 202 207 208 217 225 219 217 213 206 202 217 207 206 211 211 209 210 207 210 216 222 229 235 242 247
223 225 223 223 222 224 224 221 221 218 219 212 211 216 207 203 209 198 199 206 204 207 213 216 217 214 212 209 211 210 211 214 215 213 217 214 219 225 231 237 240 247 252
223 224 220 222 227 229 228 224 220 221 214 214 221 207 180 195 196 195 200 202 200 202 211 218 215 212 213 214 220 232 231 219 215 220 218 221 226 230 234 240 245 247 250
222 221 225 227 230 232 230 228 222 223 221 221 214 219 224 206 186 185 206 201 204 205 210 215 210 210 213 212 218 229 225 224 225 231 226 226 230 231 236 242 247 250 250
222 223 223 228 231 234 230 230 228 228 224 225 224 220 223 207 193 176 182 202 212 209 213 218 209 203 204 209 212 217 214 214 220 230 233 234 235 237 241 247 250 253 253
219 220 224 228 229 230 230 228 232 235 226 230 234 231 231 195 179 178 186 204 211 208 214 219 217 212 213 214 218 218 219 224 229 236 242 248 251 251 251 251 256 260 261
216 222 225 225 224 226 232 232 234 228 229 229 232 239 218 200 192 194 194 209 205 216 220 222 222 221 223 222 226 228 229 231 238 249 252 252 255 255 257 262 262 264 265
219 222 221 223 226 231 235 234 237 233 233 237 233 215 205 203 203 198 193 196 209 216 223 227 223 223 226 230 235 238 243 244 248 256 264 265 258 257 260 262 267 270 271
202 200 213 224 231 236 238 243 240 242 243 237 236 218 202 202 197 196 196 203 209 221 224 226 228 235 237 239 242 242 253 258 256 256 260 261 257 256 259 265 269 271 271
188 206 223 235 239 238 241 243 244 246 246 241 234 212 197 198 196 189 197 207 211 226 224 217 227 233 227 230 237 246 250 251 252 254 258 255 255 260 264 265 266 263 263
193 217 227 237 235 240 247 250 248 249 258 223 219 210 205 202 196 193 200 213 221 223 203 198 215 210 203 199 210 218 232 245 247 243 252 249 255 259 267 271 266 267 266
207 215 220 236 234 243 244 236 242 253 246 225 218 214 215 199 196 192 201 215 197 194 205 220 218 205 205 214 239 252 260 251 255 250 255 250 246 252 259 267 272 270 269
209 201 210 226 240 244 238 245 256 246 228 215 223 204 212 205 207 201 202 207 216 219 218 221 225 232 241 251 262 268 266 248 243 249 253 256 252 260 265 271 269 270 275
193 202 217 233 240 240 242 241 245 231 229 234 219 226 202 206 207 211 210 220 225 212 225 233 242 258 267 274 267 254 240 241 246 252 255 258 262 265 264 261 267 275 276
203 212 216 235 240 242 241 235 230 215 233 229 217 206 203 205 204 209 215 214 227 232 238 247 259 265 256 228 226 234 241 245 242 243 247 251 251 247 254 270 267 263 266
198 208 220 228 244 245 243 239 235 224 218 214 217 222 207 211 219 216 221 233 232 235 246 253 244 232 228 235 243 243 244 242 225 229 228 235 242 251 255 261 268 274 277
202 207 215 227 238 247 234 225 226 216 210 216 218 216 211 215 215 224 232 245 245 243 239 232 236 233 241 246 247 250 245 234 231 228 235 242 248 257 263 267 276 282 285
194 203 212 222 231 232 219 219 214 216 212 206 208 212 211 213 219 219 217 226 226 217 226 232 234 237 243 244 244 244 243 245 246 250 251 256 256 263 271 277 280 282 286
178 181 180 190 204 205 212 218 213 211 206 193 193 192 193 198 197 206 210 220 220 212 216 225 227 226 228 229 237 243 249 252 251 253 259 260 261 269 266 265 266 276 281
156 158 160 161 168 182 191 191 192 189 185 179 180 183 186 189 195 191 195 199 203 189 181 185 198 237 250 255 243 244 235 231 232 242 257 246 259 266 246 244 255 266 283